Regional Weather Roundup
Issued by NWS

Home | Current Version | Previous Version | Text Only | Print | Product List | Glossary Off
Versions: 1 2 3 4 5 6 7 8 9 10 11 12 13 14 15 16 17 18 19 20 21 22 23 24 25 26 27 28 29 30 31 32 33 34 35 36 37 38 39 40 41 42 43 44 45 46 47 48 49 50

000
ASUS45 KSLC 201010
RWRUT

UTAH REGIONAL WEATHER ROUNDUP
NATIONAL WEATHER SERVICE SALT LAKE CITY UT
400 AM MDT WED AUG 20 2014

UTZ001>011-023>025-201100-

NORTHERN UTAH

CITY           SKY/WX    TMP DP  RH WIND       PRES   REMARKS
HILL AFB       MOCLDY    66  55  68 S12       29.94R
LOGAN          CLEAR     59  50  72 SE5       29.92S
OGDEN            N/A     67  54  63 S13       29.91R
PROVO AIRPORT  MOCLDY    61  55  82 E6        29.98F
SALT LAKE CITY LGT RAIN  61  59  93 E12       29.93S
VERNAL         CLOUDY    59  58  96 CALM      29.99S
WENDOVER         N/A     70  43  37 N3        29.91S
HEBER CITY     RAIN      57  52  82 SW7       30.01R
WEST JORDAN    CLOUDY    64  64 100 CALM      29.97R

$$

UTZ012>022-026-027-201100-

SOUTHERN UTAH

CITY           SKY/WX    TMP DP  RH WIND       PRES   REMARKS
BRYCE CANYON   CLOUDY    49  46  90 N3        30.16F
CEDAR CITY       N/A     57  50  77 NE3       30.04R
MILFORD          N/A     60  54  80 S8        30.00R
MOAB/CYNLANDS  CLEAR     62  61  96 CALM      29.96R
PRICE          CLOUDY    60  57  89 E5        30.04R
ST GEORGE        N/A     66  61  82 SE7       29.95R

$$

REGIONAL REPORTS     COLORADO/ARIZONA

CITY           SKY/WX    TMP DP  RH WIND       PRES   REMARKS
CRAIG, CO      CLOUDY    56  54  93 CALM      30.04S
GRAND JUNCTION CLOUDY    61  61 100 W3        29.99R
RIFLE          CLOUDY    60  58  92 CALM      30.02S
MONTROSE       CLOUDY    62  59  90 SE6       30.06S
CORTEZ         CLOUDY    60  58  92 CALM      30.09R
PAGE, AZ         N/A     67  60  78 NW3       30.00R
GRAND CANYON     N/A    N/A N/A N/A MISG        N/A
KINGMAN          N/A     66  56  70 SE10      29.95S
FLAGSTAFF        N/A     49  47  93 CALM      30.21R

$$

REGIONAL REPORTS    NEVADA/IDAHO/WYOMING

CITY           SKY/WX    TMP DP  RH WIND       PRES   REMARKS
LAS VEGAS, NV    N/A     78  55  44 S5        29.81S
ELY            CLOUDY    54  52  93 S10       30.07S
ELKO             N/A     60  45  57 N3        29.95R
POCATELLO, ID  CLEAR     53  53 100 CALM      29.92R
BURLEY           N/A     54  51  90 W3        29.87S
EVANSTON, WY   CLOUDY    51  50  96 S6        30.06R
ROCK SPRINGS   MOCLDY    52  49  89 SW9       30.03S

$$


USA.gov is the U.S. government's official web portal to all federal, state and local government web resources and services.